Weather Roundup
Issued by NWS

Home | Current Version | Previous Version | Graphics & Text | Print | Product List | Glossary Off
Versions: 1 2 3 4 5 6 7 8 9 10 11 12 13 14 15 16 17 18 19 20 21 22 23 24 25 26 27 28 29 30 31 32 33 34 35 36 37 38 39 40 41 42 43 44 45 46 47 48 49 50

000
NZUS93 KARX 301110
HRRWXR

CURRENT HOURLY OBSERVATIONS ACROSS
MUCH OF THE UPPER MISSISSIPPI VALLEY
NATIONAL WEATHER SERVICE LA CROSSE WI
600 AM CDT MON MAY 30 2016


...SOUTHEAST MINNESOTA...


CITY           SKY/WX    TMP DP  RH WIND       PRES   REMARKS
ROCHESTER      CLOUDY    57  55  93 CALM      30.04S
ROCHESTER/MAYO FAIR      59  58  95 CALM      30.03S
WINONA         CLEAR     55  55 100 CALM      30.02S
AUSTIN         CLOUDY    54  52  94 CALM      30.02R
ALBERT LEA     CLOUDY    54  54 100 CALM      30.03R FOG
DODGE CENTER   CLOUDY    55  54  94 S3        30.02S
PRESTON        PTCLDY    58  53  82 CALM      30.03S
OWATONNA       CLOUDY    55  54  94 SE5       30.02R
FARIBAULT        N/A     55  54  94 S2        30.01R VSB 3/4
$$

...ELSEWHERE IN MINNESOTA...


CITY           SKY/WX    TMP DP  RH WIND       PRES   REMARKS
MINNEAPOLIS    CLOUDY    61  57  87 CALM      29.99F
INTNL FALLS    CLEAR     45  45 100 CALM      29.92R
DULUTH         CLEAR     53  49  86 W7        29.97R
RED WING       CLOUDY    54  52  94 CALM      30.00S FOG
REDWOOD FALLS  MOCLDY    58  51  78 SW8       30.01R
MANKATO        CLOUDY    55  52  88 S5        30.01R
WORTHINGTON    LGT RAIN  61  53  75 CALM      30.04F
FAIRMONT       CLOUDY    61  54  77 W7        30.06R
$$

...SOUTHWEST WISCONSIN...


CITY           SKY/WX    TMP DP  RH WIND       PRES   REMARKS
LA CROSSE      PTCLDY    58  57  97 S6        30.02R FOG
PRAIRIE DU CHI CLEAR     56  54  94 CALM      30.02S
BOSCOBEL       FOG       58  57  97 S3        30.03R VSB<1/4
LONE ROCK      FOG       56  56 100 W3        30.03R VSB 1/4
PLATTEVILLE    CLEAR     59  58  95 NW3       30.02S
FORT MC COY    CLEAR     50  49  99 CALM      30.03R
CAMP DOUGLAS   FOG       52  52 100 NW6       30.01R VSB 1/4
MAUSTON-NEW LI SUNNY     59  57  91 CALM      30.00S
VIROQUA        FAIR      60  58  95 CALM      30.03R
WIS DELLS      CLEAR     57  55  91 CALM      30.02R
$$

...ELSEWHERE IN WISCONSIN...


CITY           SKY/WX    TMP DP  RH WIND       PRES   REMARKS
MILWAUKEE      CLEAR     64  57  78 W5        30.00R
MADISON        PTCLDY    57  56  96 CALM      30.01R FOG
GREEN BAY      CLEAR     58  56  93 CALM      29.97R
EAU CLAIRE     CLEAR     56  55  97 CALM      30.01R
BLACK RVR FLS  FOG       49  49 100 CALM      30.01R VSB<1/4
MEDFORD          N/A     51  51 100 CALM      30.01R FOG
WAUSAU         CLEAR     58  55  90 NW3       29.98R
WIS RAPIDS     CLEAR     56  54  93 CALM      30.01R
MARSHFIELD     CLEAR     57  55  93 W6        30.01R
RICE LAKE      CLEAR     52  51  95 CALM      30.03R
$$

...NORTHEAST IOWA...


CITY           SKY/WX    TMP DP  RH WIND       PRES   REMARKS
WATERLOO       CLOUDY    55  54  96 CALM      30.02R FOG
DUBUQUE        CLEAR     58  55  90 N6        30.03R
DECORAH        CLEAR     57  57 100 CALM      30.02S FOG
MASON CITY     CLOUDY    54  52  93 CALM      30.04R
CHARLES CITY   CLOUDY    55  55 100 NE3       30.03S
OELWEIN        CLOUDY    57  57 100 CALM      30.04R
$$

...ELSEWHERE IN IOWA...


CITY           SKY/WX    TMP DP  RH WIND       PRES   REMARKS
DES MOINES     CLOUDY    65  59  81 S6        30.00R
IOWA CITY      CLOUDY    62  58  86 CALM      30.03R
FORT DODGE     CLOUDY    61  52  72 E6        30.03R
MARSHALLTOWN   MOCLDY    63  60  90 NE7       30.01S
CEDAR RAPIDS   CLOUDY    59  58  96 CALM      30.02R
$$

...NORTHERN ILLINOIS...


CITY           SKY/WX    TMP DP  RH WIND       PRES   REMARKS
CHICAGO-OHARE  PTCLDY    64  58  80 W5        30.01R
CHICAGO-MIDWAY PTCLDY    66  57  72 CALM      30.02R
MOLINE         PTCLDY    62  58  86 S3        30.01S
ROCKFORD       PTCLDY    61  58  90 CALM      30.04R
PEORIA         CLEAR     63  59  87 CALM      30.03S
$$

NOTE: "FAIR" INDICATES FEW OR NO CLOUDS BELOW 12,000 FEET WITH NO
SIGNIFICANT WEATHER AND/OR OBSTRUCTIONS TO VISIBILITY. WIND
SPEEDS ARE IN MILES-PER-HOUR.




USA.gov is the U.S. government's official web portal to all federal, state and local government web resources and services.